Regional Weather Roundup
Issued by NWS Jackson, KY

Home | Current Version | Previous Version | Graphics & Text | Print | Product List | Glossary On
Versions: 1 2 3 4 5 6 7 8 9 10 11 12 13 14 15 16 17 18 19 20 21 22 23 24 25 26 27 28 29 30 31 32 33 34 35 36 37 38 39 40 41 42 43 44 45 46 47 48 49 50
000
ASUS43 KJKL 162310
RWRJKL

EAST KENTUCKY HOURLY WEATHER ROUNDUP
NATIONAL WEATHER SERVICE JACKSON KY
700 PM EDT TUE SEP 16 2014

NOTE: "FAIR" INDICATES FEW OR NO CLOUDS BELOW 12,000 FEET WITH
NO SIGNIFICANT WEATHER AND/OR OBSTRUCTIONS TO VISIBILITY.

* THESE REPORTS ARE NOT UNDER NWS QUALITY CONTROL AND MAY NOT
  REPORT WEATHER SUCH AS PRECIPITATION AND FOG.

KYZ079-080-083-085-087-088-110-112-115-119-120-170000
...EASTERN KENTUCKY...

CITY           SKY/WX    TMP DP  RH WIND       PRES   REMARKS
JACKSON        MOCLDY    61  57  87 CALM      30.08S
LONDON         MOCLDY    67  58  72 N7        30.07S
MONTICELLO*    CLEAR     70  61  73 N6        30.07S
WILLIAMSBURG*  PTCLDY    68  63  83 N8        30.05F
MIDDLESBORO*   CLEAR     70  61  75 CALM      30.04F
HARLAN APT*    PTCLDY    66  59  77 MISG      30.04F
HAZARD APT*    MOCLDY    64  61  88 NE3       30.07F
BLACK MTN*       N/A     57  57 100 NE3         N/A
PIKEVILLE APT* CLOUDY    61  59  94 N8        30.07F
BIG SANDY*     CLOUDY    61  58  90 NE3       30.08S
MOREHEAD APT*  CLOUDY    63  55  77 N7        30.11S
$$

KYZ035-036-041-042-044-050-067-078-099-170000
...CENTRAL KENTUCKY...

CITY           SKY/WX    TMP DP  RH WIND       PRES   REMARKS
MT STERLING*   CLOUDY    61  55  82 NE7       30.10S
FLEMING/MASON* PTCLDY    59  53  78 N6        30.11F
DANVILLE*      MOCLDY    64  55  72 NE8       30.08S
RICHMOND*      CLOUDY    64  57  77 CALM      30.07S
LEXINGTON      PTCLDY    63  55  75 NE9       30.09S
FRANKFORT      CLEAR     63  53  70 N9        30.09S
$$

KYZ091>093-OHZ055-061-077-WVZ005-015-034-035-042-170000
...SOUTHERN OHIO/WEST VIRGINIA...

CITY           SKY/WX    TMP DP  RH WIND       PRES   REMARKS
COVINGTON      CLOUDY    60  50  69 NW5       30.11F
COLUMBUS       MOCLDY    64  47  53 W3        30.09F
DAYTON         CLOUDY    61  50  67 N3        30.12F
WILMINGTON     CLOUDY    59  49  69 N7        30.11F
HUNTINGTON     CLOUDY    62  56  80 N3        30.07F
CHARLESTON     CLOUDY    63  58  83 CALM      30.07S
PINEVILLE*     MOCLDY    65  61  86 MISG      30.11R
BECKLEY        CLOUDY    59  55  87 N6        30.09S
BLUEFIELD      PTCLDY    65  56  72 CALM      30.08S
$$

VAZ002-007-008-TNZ017-027-036-066-071-170000
...SOUTHWEST VIRGINIA/EAST TENNESSEE...

CITY           SKY/WX    TMP DP  RH WIND       PRES   REMARKS
WISE*          CLOUDY    63  61  94 N10       30.09S
JONESVILLE*    PTCLDY    72  61  68 CALM      30.05F
ABINGDON*      PTCLDY    71  62  73 W3        30.04F
BRISTOL        PTCLDY    73  58  59 NW8       30.02S
KNOXVILLE      MOCLDY    74  64  71 VRB7      30.01S
OAK RIDGE      MOCLDY    75  62  64 VRB5      30.04R
CROSSVILLE     CLOUDY    65  61  87 N7        30.09R FOG
NASHVILLE      MOCLDY    72  61  68 NE7       30.05F
$$

...KEY TO REMARKS...
VSB - VISIBILITY IN MILES
WCI - WIND CHILL INDEX
HX  - HEAT INDEX

$$



USA.gov is the U.S. government's official web portal to all federal, state and local government web resources and services.